RH
100 99 98 87 90 82 74 89 78 73 58 36 33 34 30 32 33 34 35 36 38 40 42 40 36 34 35 39 44 46 52 56 73 73 67 65 75 86 94 98 100 100 100
95 84 86 96 80 71 85 77 72 66 58 38 40 36 33 34 35 36 40 44 45 46 46 46 41 35 38 41 45 48 45 46 57 72 66 62 70 77 95 100 100 97 100
82 100 95 84 69 70 84 74 62 69 66 42 42 35 36 40 43 48 49 55 60 58 46 42 39 41 42 40 40 40 41 46 51 61 79 92 85 76 87 89 88 86 100
77 66 65 67 67 66 72 65 60 68 58 40 39 41 38 40 52 53 58 54 50 50 46 40 38 40 40 40 40 41 46 52 60 66 72 79 75 67 80 86 86 94 96
59 67 67 63 70 83 73 73 70 54 37 36 38 43 40 40 46 50 50 50 50 45 46 45 41 42 43 45 50 50 53 60 62 68 74 70 76 83 88 98 100 100 100
75 75 74 80 86 82 72 59 49 37 32 32 36 41 43 45 48 50 48 47 46 40 40 44 48 49 48 48 46 48 54 57 60 64 74 80 87 95 98 100 100 100 100
76 94 94 78 68 73 72 56 47 36 34 30 31 37 44 44 44 44 46 47 49 53 50 50 50 47 51 54 55 54 50 52 57 64 68 76 82 88 94 97 96 95 93
88 83 83 82 72 53 43 41 40 43 45 41 35 37 39 46 49 55 58 66 74 79 73 69 70 69 72 69 67 71 78 82 86 81 84 97 99 87 86 89 95 99 100
82 76 52 45 50 55 56 53 49 43 43 48 42 39 40 42 42 63 79 81 80 75 75 76 82 78 84 85 87 91 94 96 88 81 81 83 82 86 99 100 100 100 100
64 46 54 60 60 57 53 49 48 48 47 49 52 55 48 43 43 43 55 58 61 67 81 96 98 95 93 89 82 75 78 74 77 83 75 68 66 68 73 77 78 86 86
51 61 58 53 51 49 46 46 52 59 71 84 83 78 77 82 79 61 53 64 61 59 61 60 62 80 90 79 71 67 63 58 50 45 40 39 38 35 36 45 42 46 52
61 62 61 58 59 73 87 96 92 81 67 63 63 66 66 62 56 49 40 42 41 44 41 39 37 34 36 37 35 36 34 32 29 29 31 32 32 26 29 28 30 29 32
70 66 72 85 80 73 72 68 65 66 72 78 81 75 60 51 48 42 39 36 29 28 30 36 32 31 32 33 37 40 38 38 37 35 33 36 36 36 33 29 29 33 32
78 89 96 85 87 93 82 76 73 80 82 69 58 52 48 42 38 37 33 31 25 25 26 29 32 30 28 30 28 27 34 36 37 41 43 41 37 38 38 43 42 42 32
100 94 89 99 97 80 61 71 68 66 57 43 41 38 40 41 38 35 30 24 21 19 19 21 18 21 18 18 17 17 21 20 27 33 26 25 23 17 20 29 30 32 24
98 98 92 71 58 61 61 58 58 47 41 37 39 45 37 37 36 31 26 20 18 16 11 12 10 8 8 8 8 9 9 10 11 11 12 12 13 12 12 12 13 16 20
74 59 58 58 60 60 55 49 42 39 37 38 39 43 43 34 26 22 19 18 16 11 5 6 5 6 6 6 6 7 7 8 8 10 9 10 10 11 12 12 12 14 15
56 56 58 63 59 43 36 34 37 38 45 46 42 45 36 20 18 17 14 11 6 6 5 3 4 4 4 5 5 5 5 6 6 7 7 7 8 9 11 11 12 13 14
62 67 70 52 42 34 38 40 41 43 41 44 42 25 19 17 14 10 6 5 5 4 3 2 2 4 3 4 4 4 4 4 4 4 5 5 6 6 8 9 9 12 14
71 56 48 41 32 36 40 43 45 45 43 35 23 16 13 9 6 5 5 4 3 3 3 2 2 2 3 4 3 3 3 4 4 4 4 4 5 6 6 6 7 8 11
55 47 38 30 35 40 42 45 48 48 35 20 15 11 8 5 5 4 3 3 3 3 3 2 2 2 3 3 4 3 4 4 4 4 4 5 4 5 6 6 6 6 7
47 34 30 34 42 46 54 56 53 36 22 12 8 6 5 5 4 3 3 3 3 2 2 2 2 2 2 2 3 3 3 4 5 5 5 5 4 5 6 6 6 5 6
29 34 39 41 46 56 59 54 32 22 14 8 5 5 5 3 3 3 3 3 2 2 1 1 2 2 2 2 2 3 4 4 4 6 5 7 5 6 6 7 6 6 6
39 40 42 47 54 59 48 37 20 14 7 5 5 4 3 2 3 3 3 2 2 2 2 2 2 2 2 2 2 3 4 4 5 5 6 7 5 7 8 9 8 8 8
43 45 44 52 56 51 37 20 11 8 5 5 5 3 2 3 3 2 2 2 2 2 2 2 2 2 3 2 3 3 3 4 5 4 6 7 5 8 9 9 9 9 9
44 45 52 51 48 42 19 11 7 5 5 5 4 2 2 3 3 2 2 2 2 2 2 2 3 3 3 3 3 3 3 4 4 4 5 7 7 9 10 11 12 11 11
Wind_Speed
46 50 48 51 50 48 49 48 48 50 50 48 46 42 40 41 43 46 49 52 54 56 58 57 57 58 59 61 63 65 66 67 68 68 70 69 68 71 71 69 71 72 70
47 50 47 46 48 50 50 50 50 52 53 49 46 43 43 45 47 49 51 54 55 56 59 62 64 64 67 69 71 72 73 73 72 72 72 73 73 74 73 71 72 72 72
45 44 48 50 51 49 53 54 54 54 55 53 51 48 49 50 52 54 56 58 61 62 64 67 69 72 74 76 77 78 79 78 78 77 78 79 78 79 79 78 77 74 72
45 47 50 51 52 53 54 57 57 56 58 56 55 55 55 57 59 61 64 65 66 69 72 73 75 77 79 81 81 81 81 83 84 84 83 82 82 83 83 83 81 80 76
42 44 48 51 51 53 56 56 59 58 60 57 56 60 62 64 67 69 71 73 74 76 78 80 84 84 84 85 87 87 87 88 88 88 88 87 89 88 88 89 86 83 81
42 45 48 50 55 58 59 59 60 61 59 58 60 63 66 70 73 76 78 79 81 84 85 87 89 90 91 91 91 91 92 92 93 93 94 95 95 95 93 91 88 86 85
43 46 50 54 57 58 60 63 62 60 61 61 62 66 70 73 76 80 84 86 89 92 92 93 95 96 98 100 100 100 99 100 100 101 102 103 102 99 97 95 93 92 92
47 50 53 56 60 62 62 61 60 62 66 70 71 73 74 77 82 85 88 90 93 97 99 101 103 104 105 107 108 110 110 109 109 109 108 107 106 105 104 103 102 100 98
51 55 56 54 55 58 61 63 65 67 69 75 79 81 81 82 84 88 92 97 101 104 107 110 112 114 115 115 116 116 116 117 117 115 114 112 112 110 110 108 107 107 104
54 53 55 58 61 63 65 68 71 74 76 79 84 90 92 93 93 89 96 101 104 107 110 113 116 119 123 125 126 125 125 124 124 125 125 122 119 117 117 115 114 112 110
53 56 60 63 66 68 71 73 77 80 83 86 90 94 98 104 109 110 102 107 111 114 116 118 120 122 125 129 131 132 132 130 131 130 131 129 125 120 119 117 114 112 111
58 61 64 67 69 71 75 79 83 86 90 95 99 102 106 109 114 118 120 117 118 119 121 124 126 128 131 132 132 133 136 135 134 133 133 134 135 131 127 122 121 117 114
61 65 67 70 73 77 81 85 90 95 99 102 107 112 116 119 122 125 129 128 127 124 125 125 131 131 133 134 134 136 138 137 138 138 136 135 137 135 133 127 122 119 114
67 71 73 77 82 86 90 94 97 102 106 110 114 115 116 120 125 130 135 140 138 135 131 132 135 137 136 137 137 138 140 140 140 139 140 141 135 134 131 133 129 126 115
72 76 80 84 89 92 96 100 104 107 109 110 110 115 122 127 133 139 143 145 149 146 136 132 132 136 135 135 134 133 132 131 131 133 131 131 128 122 116 118 122 121 113
78 81 85 89 94 98 102 105 107 106 107 111 115 122 130 136 140 142 146 151 152 148 134 129 126 120 117 114 113 113 110 110 109 109 111 110 111 106 102 101 103 104 105
82 87 91 95 100 104 105 104 105 108 113 118 124 130 136 143 146 149 153 150 149 144 128 107 108 105 103 101 102 99 99 99 98 96 98 98 98 99 98 96 94 93 93
89 92 97 100 102 101 104 105 110 112 117 124 131 138 142 146 149 150 146 137 129 122 116 99 97 96 92 92 90 92 89 90 90 90 90 89 89 88 88 86 85 84 86
94 97 100 100 102 104 106 111 115 121 126 133 140 143 146 145 144 142 132 117 115 110 104 93 81 87 85 84 82 82 83 81 79 80 80 83 83 83 80 79 77 78 77
97 99 101 102 103 108 113 116 123 128 136 141 144 144 143 140 132 120 117 112 105 101 98 92 83 78 78 80 77 76 75 74 75 75 75 75 74 72 73 74 73 74 73
100 101 101 103 110 114 120 128 130 134 138 141 144 143 137 125 119 115 107 101 98 95 91 86 79 74 73 73 74 72 66 69 71 71 69 69 66 63 65 66 68 70 69
101 101 103 107 116 123 127 130 135 135 142 142 139 131 122 116 113 106 102 96 92 88 85 82 78 76 73 70 69 66 64 61 62 68 61 64 60 59 60 62 63 63 62
98 103 110 116 122 125 133 135 137 143 142 136 126 118 115 111 105 99 95 94 93 92 87 81 75 73 68 67 61 60 59 59 58 65 58 61 59 56 57 58 58 57 56
107 111 117 120 126 132 133 136 138 138 132 124 117 114 109 103 99 93 91 91 90 90 87 82 73 65 61 61 55 54 56 55 54 59 57 57 57 52 51 52 52 51 50
115 121 122 125 130 134 136 139 138 130 121 114 111 107 102 97 92 90 88 85 82 80 76 68 62 59 54 52 51 51 50 47 50 53 50 52 53 48 46 46 46 46 45
118 122 122 129 134 138 138 136 129 120 112 107 103 100 97 91 89 86 79 73 69 68 64 60 51 49 48 45 46 45 44 44 47 46 42 46 47 44 44 43 40 38 40
Wind_Direction
251 257 268 270 272 279 283 285 287 291 293 294 291 286 281 281 281 282 283 284 286 287 288 288 287 286 285 287 289 291 293 294 294 294 294 296 297 297 298 301 303 304 303
255 261 264 268 272 277 280 285 290 294 297 295 293 283 281 282 283 284 286 287 287 289 290 290 290 286 287 287 288 289 289 291 292 291 291 292 294 296 297 298 299 300 300
257 263 266 268 273 277 282 286 290 293 297 293 292 286 283 283 284 285 287 287 288 290 291 291 291 291 290 289 288 287 289 290 292 293 293 292 293 294 295 296 297 296 296
264 266 269 272 275 278 281 285 291 291 293 290 289 289 285 285 285 285 286 288 290 290 291 293 293 291 290 289 288 288 289 290 292 292 291 289 290 292 294 295 295 296 295
266 269 273 277 278 280 285 286 289 289 290 287 287 287 286 285 285 286 286 288 289 290 289 289 290 290 289 289 290 290 290 290 290 290 290 290 291 292 292 292 293 292 293
269 272 275 278 282 284 287 287 290 290 289 286 285 285 286 285 285 286 287 287 287 287 289 290 290 291 290 289 288 288 288 288 288 288 288 289 289 289 290 290 291 292 292
275 279 281 282 285 286 288 288 288 289 287 284 282 284 287 288 287 287 289 290 291 291 291 291 291 291 291 290 289 288 287 287 287 288 287 288 289 288 287 288 289 289 291
281 285 286 285 286 288 288 289 290 290 289 289 288 287 286 289 290 291 291 290 290 290 291 290 289 288 287 287 288 288 288 287 286 286 286 286 287 288 289 289 290 290 290
285 286 286 288 288 289 290 290 290 290 290 291 291 288 287 286 286 287 288 289 289 290 290 289 289 289 288 287 286 285 286 286 286 286 285 285 286 287 286 286 286 287 287
284 285 288 291 292 292 292 293 293 293 292 291 290 291 290 288 285 283 285 285 285 286 286 286 287 287 287 287 287 287 287 287 287 286 287 287 287 285 284 284 283 283 283
288 290 292 293 293 294 294 292 292 292 292 291 291 290 290 291 290 289 287 285 286 285 285 286 286 286 285 286 287 286 286 286 286 286 286 286 285 284 282 281 281 282 282
291 291 291 292 292 293 294 294 292 292 292 291 290 290 289 289 289 289 289 287 286 286 287 288 287 287 287 286 285 285 285 284 284 283 283 284 284 283 282 281 281 280 280
289 290 290 291 292 293 293 294 295 293 293 292 293 293 293 293 293 293 292 290 290 288 288 287 288 287 285 283 282 280 280 279 280 280 280 279 280 280 281 280 279 278 278
290 292 292 293 295 295 295 294 293 295 294 295 296 296 294 291 291 292 292 293 293 293 292 290 287 286 286 283 282 282 280 278 278 278 279 279 278 276 276 277 277 276 276
291 292 292 293 293 292 293 294 296 297 297 296 294 293 293 293 292 292 294 295 297 298 295 290 290 288 286 284 283 282 280 280 278 276 276 276 276 275 272 271 272 272 272
291 290 290 291 292 293 295 296 297 296 295 294 293 294 293 293 293 294 296 298 298 299 299 296 294 290 287 285 283 281 280 278 277 275 274 272 272 271 270 268 266 266 266
291 292 293 295 296 298 298 297 296 295 295 295 295 295 294 295 297 298 297 297 298 297 297 296 295 291 288 285 284 281 278 277 276 275 273 272 272 268 268 266 263 261 260
294 295 297 298 298 298 298 298 297 298 298 296 296 296 296 297 298 297 299 298 297 296 298 299 294 291 289 286 283 281 280 276 274 273 272 271 271 268 266 264 263 263 259
297 299 299 298 298 298 300 300 301 300 299 299 298 297 298 298 298 300 300 300 300 300 299 297 294 290 288 285 282 281 278 278 276 276 275 271 270 267 267 266 265 262 258
300 299 299 298 300 302 304 303 303 302 301 300 299 300 302 303 303 303 303 303 301 299 296 295 294 290 288 285 283 280 280 279 277 276 274 272 271 268 268 266 265 261 257
299 299 300 301 304 304 304 304 304 303 301 302 303 305 305 304 304 305 304 302 299 296 295 295 294 291 287 286 284 285 282 277 276 274 274 272 272 270 267 266 263 260 258
300 301 303 305 305 305 306 305 304 304 303 305 306 305 305 305 305 305 303 302 299 296 294 293 293 291 288 287 285 283 281 277 274 275 273 272 271 269 266 264 262 258 257
303 306 307 307 305 306 306 306 306 305 306 307 307 307 307 307 306 306 304 302 300 298 297 295 293 290 288 285 286 282 278 275 273 271 275 271 272 268 266 265 263 261 260
308 309 307 305 305 306 306 307 306 307 308 309 308 308 307 308 308 306 303 301 300 297 296 296 294 288 284 282 282 279 275 274 272 270 270 269 271 271 270 264 261 258 256
308 307 306 305 306 307 307 306 307 308 309 309 308 308 309 309 308 303 304 303 301 298 297 296 294 291 284 280 275 275 276 274 269 266 266 266 270 270 270 267 261 257 254
307 306 305 307 306 309 308 308 309 309 309 309 308 309 311 311 307 307 306 305 304 301 300 299 295 291 284 278 272 271 271 268 268 268 266 265 268 268 267 265 261 255 252